When you browse on this site, cookies collect data to enhance your experience and personalize the content and advertising you see.
Visit our Privacy Policy to learn more. By continuing to use the site, you agree to this use of cookies and data.
  • In Romania
  • List of Countries
  • For 7 days
  • Water Temperature
  • Weather Map
  • Weather Widgets
  • user-avatar
    Login

    Hourly Weather Ayacucho

    Today, 28 May, Thursday

    Time Temperature Precipitation Wind Pressure Humidity
    00:00 +8°C° 0 mm 0 mps 539 mmHg 71%
    01:00 +8°C° 0 mm 0 mps 538 mmHg 71%
    02:00 +7°C° 0 mm 0 mps 538 mmHg 71%
    03:00 +7°C° 0 mm 0 mps 538 mmHg 70%
    04:00 +7°C° 0 mm 0 mps 538 mmHg 70%
    05:00 +8°C° 0 mm 0 mps 539 mmHg 69%
    06:00 +9°C° 0 mm 0 mps 540 mmHg 68%
    07:00 +10°C° 0 mm 0 mps 541 mmHg 67%
    08:00 +13°C° 0 mm 1 mps 542 mmHg 59%
    09:00 +15°C° 0 mm 1 mps 542 mmHg 51%
    10:00 +18°C° 0 mm 1 mps 543 mmHg 44%
    11:00 +19°C° 0 mm 1 mps 543 mmHg 41%
    12:00 +19°C° 0 mm 2 mps 543 mmHg 38%
    13:00 +21°C° 0 mm 2 mps 543 mmHg 35%
    14:00 +20°C° 0 mm 2 mps 543 mmHg 36%
    15:00 +20°C° 0 mm 2 mps 543 mmHg 37%
    16:00 +20°C° 0 mm 2 mps 543 mmHg 38%
    17:00 +17°C° 0 mm 2 mps 542 mmHg 51%
    18:00 +15°C° 0 mm 2 mps 541 mmHg 63%
    19:00 +12°C° 0 mm 1 mps 540 mmHg 75%
    20:00 +12°C° 0 mm 1 mps 540 mmHg 76%
    21:00 +11°C° 0 mm 1 mps 540 mmHg 77%
    22:00 +11°C° 0 mm 1 mps 540 mmHg 78%
    23:00 +9°C° 0 mm 0 mps 540 mmHg 78%

    Tomorrow, 29 May, Friday

    Time Temperature Precipitation Wind Pressure Humidity
    00:00 +9°C° 0 mm 0 mps 540 mmHg 79%
    01:00 +8°C° 0 mm 0 mps 539 mmHg 79%
    02:00 +8°C° 0 mm 0 mps 539 mmHg 80%
    03:00 +8°C° 0 mm 0 mps 538 mmHg 80%
    04:00 +8°C° 0 mm 0 mps 538 mmHg 81%
    05:00 +9°C° 0 mm 0 mps 539 mmHg 79%
    06:00 +10°C° 0 mm 0 mps 540 mmHg 78%
    07:00 +11°C° 0 mm 0 mps 541 mmHg 76%
    08:00 +12°C° 0 mm 0 mps 542 mmHg 69%
    09:00 +15°C° 0 mm 1 mps 543 mmHg 62%
    10:00 +18°C° 0 mm 1 mps 543 mmHg 55%
    11:00 +18°C° 0 mm 2 mps 543 mmHg 51%
    12:00 +19°C° 0 mm 2 mps 543 mmHg 47%
    13:00 +20°C° 0 mm 2 mps 543 mmHg 43%
    14:00 +20°C° 0 mm 2 mps 543 mmHg 43%
    15:00 +20°C° 0 mm 3 mps 543 mmHg 44%
    16:00 +20°C° 0 mm 3 mps 542 mmHg 44%
    17:00 +17°C° 0 mm 2 mps 541 mmHg 55%
    18:00 +15°C° 0 mm 2 mps 541 mmHg 65%
    19:00 +12°C° 0 mm 2 mps 540 mmHg 76%
    20:00 +12°C° 0 mm 1 mps 540 mmHg 75%
    21:00 +11°C° 0 mm 1 mps 540 mmHg 74%
    22:00 +10°C° 0 mm 1 mps 540 mmHg 73%
    23:00 +9°C° 0 mm 0 mps 540 mmHg 73%

    Day after tomorrow, 30 May, Saturday

    Time Temperature Precipitation Wind Pressure Humidity
    00:00 +8°C° 0 mm 0 mps 539 mmHg 74%
    01:00 +8°C° 0 mm 0 mps 539 mmHg 74%
    02:00 +7°C° 0 mm 0 mps 539 mmHg 75%
    03:00 +7°C° 0 mm 0 mps 538 mmHg 75%
    04:00 +6°C° 0 mm 0 mps 538 mmHg 76%
    05:00 +7°C° 0 mm 0 mps 539 mmHg 75%
    06:00 +8°C° 0 mm 0 mps 540 mmHg 74%
    07:00 +9°C° 0 mm 0 mps 541 mmHg 73%
    08:00 +11°C° 0 mm 0 mps 541 mmHg 64%
    09:00 +14°C° 0 mm 1 mps 542 mmHg 55%
    10:00 +16°C° 0 mm 1 mps 543 mmHg 46%
    11:00 +18°C° 0 mm 1 mps 543 mmHg 41%
    12:00 +18°C° 0 mm 2 mps 543 mmHg 36%
    13:00 +19°C° 0 mm 2 mps 543 mmHg 31%
    14:00 +19°C° 0 mm 2 mps 543 mmHg 32%
    15:00 +19°C° 0 mm 2 mps 542 mmHg 32%
    16:00 +20°C° 0 mm 1 mps 542 mmHg 33%
    17:00 +18°C° 0 mm 1 mps 541 mmHg 41%
    18:00 +14°C° 0 mm 1 mps 540 mmHg 48%
    19:00 +12°C° 0 mm 2 mps 540 mmHg 56%
    20:00 +11°C° 0 mm 1 mps 540 mmHg 57%
    21:00 +11°C° 0 mm 1 mps 540 mmHg 58%
    22:00 +10°C° 0 mm 1 mps 540 mmHg 58%
    23:00 +9°C° 0 mm 0 mps 540 mmHg 59%

    31 May, Sunday

    Time Temperature Precipitation Wind Pressure Humidity
    00:00 +8°C° 0 mm 0 mps 539 mmHg 60%
    01:00 +8°C° 0 mm 0 mps 539 mmHg 61%
    02:00 +7°C° 0 mm 0 mps 539 mmHg 62%
    03:00 +7°C° 0 mm 0 mps 538 mmHg 63%
    04:00 +7°C° 0 mm 0 mps 538 mmHg 64%
    05:00 +8°C° 0 mm 0 mps 539 mmHg 64%
    06:00 +9°C° 0 mm 0 mps 540 mmHg 65%
    07:00 +10°C° 0 mm 0 mps 541 mmHg 65%
    08:00 +12°C° 0 mm 0 mps 542 mmHg 57%
    09:00 +15°C° 0 mm 1 mps 543 mmHg 49%
    10:00 +18°C° 0 mm 1 mps 544 mmHg 41%
    11:00 +19°C° 0 mm 1 mps 544 mmHg 40%
    12:00 +19°C° 0 mm 2 mps 544 mmHg 38%
    13:00 +20°C° 0 mm 2 mps 544 mmHg 36%
    14:00 +20°C° 0 mm 2 mps 543 mmHg 38%
    15:00 +19°C° 0 mm 2 mps 543 mmHg 40%
    16:00 +19°C° 0 mm 2 mps 542 mmHg 43%
    17:00 +18°C° 0.1 mm 1 mps 542 mmHg 52%
    18:00 +15°C° 0.1 mm 1 mps 541 mmHg 61%
    19:00 +14°C° 0.1 mm 1 mps 541 mmHg 70%
    20:00 +13°C° 0 mm 1 mps 541 mmHg 72%
    21:00 +12°C° 0 mm 1 mps 541 mmHg 73%
    22:00 +10°C° 0 mm 0 mps 541 mmHg 75%
    23:00 +10°C° 0 mm 0 mps 540 mmHg 76%

    1 June, Monday

    Time Temperature Precipitation Wind Pressure Humidity
    00:00 +9°C° 0 mm 0 mps 540 mmHg 76%
    01:00 +9°C° 0 mm 0 mps 540 mmHg 77%
    02:00 +9°C° 0 mm 0 mps 539 mmHg 78%
    03:00 +8°C° 0 mm 0 mps 539 mmHg 78%
    04:00 +9°C° 0 mm 1 mps 539 mmHg 78%
    05:00 +10°C° 0 mm 1 mps 540 mmHg 78%
    06:00 +11°C° 0 mm 1 mps 540 mmHg 77%
    07:00 +11°C° 0 mm 1 mps 541 mmHg 76%
    08:00 +13°C° 0 mm 1 mps 542 mmHg 68%
    09:00 +15°C° 0 mm 1 mps 543 mmHg 60%
    10:00 +18°C° 0 mm 1 mps 544 mmHg 52%
    11:00 +19°C° 0 mm 1 mps 544 mmHg 48%
    12:00 +20°C° 0 mm 1 mps 544 mmHg 44%
    13:00 +20°C° 0 mm 2 mps 543 mmHg 40%
    14:00 +20°C° 0 mm 2 mps 543 mmHg 40%
    15:00 +20°C° 0 mm 2 mps 543 mmHg 40%
    16:00 +20°C° 0 mm 2 mps 542 mmHg 40%
    17:00 +18°C° 0 mm 2 mps 542 mmHg 49%
    18:00 +16°C° 0 mm 2 mps 541 mmHg 59%
    19:00 +14°C° 0 mm 2 mps 541 mmHg 68%
    20:00 +14°C° 0 mm 2 mps 541 mmHg 68%
    21:00 +13°C° 0 mm 1 mps 542 mmHg 69%
    22:00 +13°C° 0 mm 1 mps 542 mmHg 69%
    23:00 +12°C° 0 mm 1 mps 541 mmHg 71%

    2 June, Tuesday

    Time Temperature Precipitation Wind Pressure Humidity
    00:00 +12°C° 0 mm 1 mps 541 mmHg 73%
    01:00 +10°C° 0 mm 0 mps 540 mmHg 75%
    02:00 +11°C° 0 mm 1 mps 540 mmHg 75%
    03:00 +10°C° 0 mm 1 mps 539 mmHg 76%
    04:00 +10°C° 0 mm 1 mps 539 mmHg 76%
    05:00 +11°C° 0 mm 1 mps 540 mmHg 75%
    06:00 +11°C° 0 mm 1 mps 540 mmHg 74%
    07:00 +12°C° 0 mm 1 mps 541 mmHg 72%
    08:00 +14°C° 0 mm 1 mps 542 mmHg 67%
    09:00 +15°C° 0 mm 1 mps 542 mmHg 61%
    10:00 +18°C° 0 mm 1 mps 543 mmHg 55%
    11:00 +19°C° 0.1 mm 1 mps 543 mmHg 52%
    12:00 +20°C° 0.1 mm 1 mps 543 mmHg 50%
    13:00 +20°C° 0.1 mm 2 mps 543 mmHg 47%
    14:00 +20°C° 0 mm 2 mps 543 mmHg 49%
    15:00 +20°C° 0 mm 2 mps 542 mmHg 51%
    16:00 +19°C° 0 mm 2 mps 542 mmHg 54%
    17:00 +18°C° 0.2 mm 2 mps 542 mmHg 62%
    18:00 +16°C° 0.2 mm 1 mps 542 mmHg 69%
    19:00 +15°C° 0.2 mm 1 mps 541 mmHg 77%
    20:00 +15°C° 0.2 mm 1 mps 541 mmHg 79%
    21:00 +13°C° 0.2 mm 0 mps 542 mmHg 80%
    22:00 +13°C° 0.2 mm 0 mps 542 mmHg 81%
    23:00 +13°C° 0.1 mm 0 mps 542 mmHg 81%
    Show more